• In Denmark
  • List of Countries
  • For 7 days
  • Water Temperature
  • Satellite Maps
  • Weather Map
  • Weather Widgets
  • user-avatar
    Login

    Hourly Weather Hrazdan

    Today, 24 September, Monday

    Time Temperature Precipitation Wind Pressure Humidity
    00:00 +11°C° 0 mm 1 mps 615 mmHg 83%
    01:00 +10°C° 0 mm 1 mps 615 mmHg 84%
    02:00 +10°C° 0 mm 1 mps 615 mmHg 85%
    03:00 +10°C° 0 mm 1 mps 615 mmHg 88%
    04:00 +10°C° 0 mm 1 mps 615 mmHg 87%
    05:00 +10°C° 0 mm 1 mps 615 mmHg 87%
    06:00 +9°C° 0 mm 1 mps 615 mmHg 86%
    07:00 +12°C° 0 mm 1 mps 616 mmHg 76%
    08:00 +14°C° 0 mm 1 mps 617 mmHg 65%
    09:00 +16°C° 0 mm 1 mps 618 mmHg 55%
    10:00 +18°C° 0 mm 1 mps 618 mmHg 50%
    11:00 +19°C° 0 mm 1 mps 618 mmHg 45%
    12:00 +21°C° 0 mm 1 mps 619 mmHg 40%
    13:00 +21°C° 0 mm 1 mps 619 mmHg 39%
    14:00 +21°C° 0 mm 1 mps 618 mmHg 38%
    15:00 +20°C° 0 mm 2 mps 618 mmHg 38%
    16:00 +19°C° 0 mm 1 mps 618 mmHg 44%
    17:00 +18°C° 0 mm 1 mps 617 mmHg 50%
    18:00 +15°C° 0 mm 1 mps 616 mmHg 57%
    19:00 +14°C° 0 mm 1 mps 616 mmHg 62%
    20:00 +13°C° 0 mm 1 mps 616 mmHg 67%
    21:00 +13°C° 0 mm 1 mps 616 mmHg 71%
    22:00 +12°C° 0 mm 1 mps 616 mmHg 73%
    23:00 +12°C° 0 mm 1 mps 616 mmHg 75%

    Tomorrow, 25 September, Tuesday

    Time Temperature Precipitation Wind Pressure Humidity
    00:00 +12°C° 0 mm 1 mps 616 mmHg 77%
    01:00 +11°C° 0 mm 1 mps 616 mmHg 77%
    02:00 +11°C° 0 mm 1 mps 615 mmHg 76%
    03:00 +11°C° 0 mm 1 mps 615 mmHg 75%
    04:00 +10°C° 0 mm 1 mps 615 mmHg 72%
    05:00 +10°C° 0 mm 1 mps 615 mmHg 70%
    06:00 +10°C° 0 mm 1 mps 614 mmHg 68%
    07:00 +13°C° 0 mm 1 mps 615 mmHg 58%
    08:00 +15°C° 0 mm 1 mps 616 mmHg 49%
    09:00 +18°C° 0 mm 2 mps 617 mmHg 40%
    10:00 +19°C° 0 mm 2 mps 617 mmHg 37%
    11:00 +20°C° 0 mm 2 mps 617 mmHg 34%
    12:00 +21°C° 0 mm 2 mps 617 mmHg 31%
    13:00 +23°C° 0 mm 2 mps 617 mmHg 31%
    14:00 +23°C° 0 mm 2 mps 617 mmHg 31%
    15:00 +23°C° 0 mm 2 mps 616 mmHg 30%
    16:00 +21°C° 0 mm 1 mps 615 mmHg 38%
    17:00 +19°C° 0 mm 1 mps 615 mmHg 45%
    18:00 +16°C° 0 mm 1 mps 614 mmHg 52%
    19:00 +15°C° 0 mm 1 mps 614 mmHg 58%
    20:00 +14°C° 0 mm 2 mps 614 mmHg 64%
    21:00 +14°C° 0 mm 2 mps 615 mmHg 70%
    22:00 +13°C° 0.1 mm 2 mps 614 mmHg 73%
    23:00 +13°C° 0.1 mm 2 mps 614 mmHg 76%

    Day after tomorrow, 26 September, Wednesday

    Time Temperature Precipitation Wind Pressure Humidity
    00:00 +12°C° 0.1 mm 2 mps 614 mmHg 79%
    01:00 +12°C° 0.2 mm 1 mps 614 mmHg 79%
    02:00 +12°C° 0.2 mm 1 mps 614 mmHg 80%
    03:00 +11°C° 0.2 mm 1 mps 614 mmHg 80%
    04:00 +11°C° 0.1 mm 1 mps 614 mmHg 80%
    05:00 +11°C° 0.1 mm 1 mps 614 mmHg 81%
    06:00 +10°C° 0.1 mm 1 mps 614 mmHg 81%
    07:00 +12°C° 0.1 mm 1 mps 615 mmHg 73%
    08:00 +14°C° 0.1 mm 2 mps 615 mmHg 65%
    09:00 +16°C° 0.1 mm 2 mps 616 mmHg 58%
    10:00 +17°C° 0.1 mm 2 mps 616 mmHg 54%
    11:00 +18°C° 0.1 mm 2 mps 617 mmHg 50%
    12:00 +19°C° 0.1 mm 2 mps 617 mmHg 47%
    13:00 +19°C° 0.2 mm 3 mps 616 mmHg 47%
    14:00 +19°C° 0.2 mm 3 mps 616 mmHg 48%
    15:00 +19°C° 0.2 mm 3 mps 616 mmHg 49%
    16:00 +17°C° 0.1 mm 3 mps 616 mmHg 55%
    17:00 +16°C° 0.1 mm 3 mps 615 mmHg 62%
    18:00 +13°C° 0.1 mm 3 mps 615 mmHg 68%
    19:00 +12°C° 0 mm 3 mps 615 mmHg 71%
    20:00 +11°C° 0 mm 3 mps 615 mmHg 74%
    21:00 +12°C° 0 mm 2 mps 615 mmHg 77%
    22:00 +10°C° 0 mm 2 mps 615 mmHg 79%
    23:00 +10°C° 0 mm 2 mps 615 mmHg 80%

    27 September, Thursday

    Time Temperature Precipitation Wind Pressure Humidity
    00:00 +9°C° 0 mm 2 mps 615 mmHg 82%
    01:00 +9°C° 0 mm 2 mps 615 mmHg 83%
    02:00 +8°C° 0 mm 2 mps 615 mmHg 85%
    03:00 +8°C° 0 mm 2 mps 615 mmHg 86%
    04:00 +8°C° 0 mm 2 mps 615 mmHg 87%
    05:00 +8°C° 0 mm 2 mps 615 mmHg 87%
    06:00 +7°C° 0 mm 2 mps 615 mmHg 88%
    07:00 +9°C° 0 mm 2 mps 616 mmHg 81%
    08:00 +12°C° 0 mm 2 mps 617 mmHg 74%
    09:00 +14°C° 0 mm 2 mps 618 mmHg 67%
    10:00 +14°C° 0 mm 2 mps 618 mmHg 64%
    11:00 +15°C° 0 mm 2 mps 618 mmHg 61%
    12:00 +16°C° 0 mm 2 mps 618 mmHg 58%
    13:00 +16°C° 0 mm 2 mps 618 mmHg 58%
    14:00 +17°C° 0 mm 2 mps 618 mmHg 58%
    15:00 +17°C° 0 mm 2 mps 618 mmHg 58%
    16:00 +15°C° 0 mm 2 mps 617 mmHg 64%
    17:00 +14°C° 0 mm 2 mps 617 mmHg 70%
    18:00 +13°C° 0 mm 2 mps 617 mmHg 76%
    19:00 +12°C° 0 mm 2 mps 617 mmHg 79%
    20:00 +12°C° 0 mm 2 mps 617 mmHg 82%
    21:00 +10°C° 0 mm 2 mps 617 mmHg 85%
    22:00 +10°C° 0 mm 2 mps 617 mmHg 86%
    23:00 +10°C° 0 mm 2 mps 617 mmHg 87%

    28 September, Friday

    Time Temperature Precipitation Wind Pressure Humidity
    00:00 +9°C° 0 mm 2 mps 617 mmHg 88%
    01:00 +10°C° 0 mm 1 mps 617 mmHg 88%
    02:00 +10°C° 0 mm 1 mps 617 mmHg 89%
    03:00 +10°C° 0 mm 1 mps 617 mmHg 89%
    04:00 +9°C° 0 mm 1 mps 617 mmHg 90%
    05:00 +9°C° 0 mm 1 mps 617 mmHg 90%
    06:00 +9°C° 0 mm 1 mps 617 mmHg 90%
    07:00 +11°C° 0 mm 1 mps 617 mmHg 81%
    08:00 +13°C° 0 mm 1 mps 618 mmHg 72%
    09:00 +14°C° 0 mm 1 mps 619 mmHg 63%
    10:00 +16°C° 0 mm 2 mps 619 mmHg 58%
    11:00 +17°C° 0 mm 2 mps 619 mmHg 53%
    12:00 +18°C° 0 mm 2 mps 619 mmHg 48%
    13:00 +19°C° 0 mm 2 mps 619 mmHg 48%
    14:00 +19°C° 0 mm 2 mps 619 mmHg 47%
    15:00 +19°C° 0 mm 2 mps 618 mmHg 47%
    16:00 +17°C° 0 mm 2 mps 618 mmHg 55%
    17:00 +15°C° 0 mm 2 mps 617 mmHg 63%
    18:00 +14°C° 0 mm 1 mps 617 mmHg 71%
    19:00 +13°C° 0 mm 1 mps 617 mmHg 74%
    20:00 +13°C° 0 mm 2 mps 617 mmHg 78%
    21:00 +13°C° 0 mm 2 mps 617 mmHg 82%
    22:00 +12°C° 0 mm 2 mps 617 mmHg 83%
    23:00 +12°C° 0 mm 2 mps 617 mmHg 85%

    29 September, Saturday

    Time Temperature Precipitation Wind Pressure Humidity
    00:00 +12°C° 0 mm 2 mps 617 mmHg 86%
    01:00 +12°C° 0 mm 1 mps 617 mmHg 86%
    02:00 +11°C° 0 mm 1 mps 616 mmHg 87%
    03:00 +11°C° 0 mm 1 mps 616 mmHg 88%
    04:00 +11°C° 0 mm 1 mps 616 mmHg 87%
    05:00 +10°C° 0 mm 1 mps 616 mmHg 86%
    06:00 +10°C° 0 mm 1 mps 616 mmHg 85%
    07:00 +12°C° 0 mm 1 mps 617 mmHg 75%
    08:00 +14°C° 0 mm 1 mps 617 mmHg 65%
    09:00 +16°C° 0 mm 2 mps 618 mmHg 55%
    10:00 +17°C° 0 mm 2 mps 618 mmHg 50%
    11:00 +19°C° 0 mm 2 mps 618 mmHg 45%
    12:00 +20°C° 0 mm 2 mps 618 mmHg 40%
    13:00 +21°C° 0 mm 2 mps 618 mmHg 39%
    14:00 +21°C° 0 mm 2 mps 617 mmHg 37%
    15:00 +21°C° 0 mm 2 mps 617 mmHg 36%
    16:00 +19°C° 0 mm 2 mps 616 mmHg 43%
    17:00 +18°C° 0 mm 1 mps 616 mmHg 50%
    18:00 +15°C° 0 mm 1 mps 615 mmHg 58%
    19:00 +15°C° 0 mm 1 mps 615 mmHg 59%
    20:00 +14°C° 0 mm 1 mps 615 mmHg 61%
    21:00 +14°C° 0 mm 1 mps 615 mmHg 63%
    22:00 +13°C° 0 mm 1 mps 615 mmHg 61%
    23:00 +13°C° 0 mm 1 mps 615 mmHg 60%
    Show more